Simultaneous Nadir Overpasses (SNOs) Predictions

Prediction of SNOs between METOP-C and LANDSAT-8 Satellite Orbit:

Table of predicted SNOs for the next 14.0 days since TLE Epoch: 3/26/2022
Index Date (METOP-C) Time (METOP-C) Lat,Lon (METOP-C) SZA (METOP-C ) Date (LANDSAT-8) Time (LANDSAT-8) Lat,Lon (LANDSAT-8) SZA (LANDSAT-8 ) Distance(km) Time Diff (sec)
1 03/27/2022 05:02:25 -81.09, -36.85 99.69 03/27/2022 05:02:54 -81.09, -36.78 99.67 1.26 29
2 03/27/2022 05:53:03 81.12, 131.44 80.42 03/27/2022 05:52:19 81.12, 131.29 80.38 2.55 44
3 03/30/2022 00:36:47 -81.09, 29.76 100.74 03/30/2022 00:37:06 -81.10, 29.84 100.72 1.68 19
4 03/30/2022 01:27:25 81.13,-161.92 79.38 03/30/2022 01:26:31 81.13,-162.11 79.33 3.31 54
5 04/01/2022 20:11:09 -81.10, 96.33 101.78 04/01/2022 20:11:18 -81.11, 96.39 101.77 1.20 9
6 04/01/2022 21:01:49 81.11, -96.06 78.25 04/01/2022 21:00:44 81.11, -95.96 78.23 1.76 65
7 04/04/2022 14:54:51 81.08, -5.11 77.12 04/04/2022 14:56:03 81.08, -5.16 77.14 0.96 72
8 04/04/2022 15:45:30 -81.11, 162.88 102.82 04/04/2022 15:45:29 -81.11, 162.85 102.82 0.60 1
9 04/04/2022 16:35:17 81.28, -8.76 79.73 04/04/2022 16:34:04 81.84, -8.99 79.94 61.91 73
10 04/07/2022 10:29:14 81.07, 61.07 76.05 04/07/2022 10:30:15 81.08, 61.20 76.09 2.33 61



Historial Predications of SNOs between METOP-C and LANDSAT-8
